Wind_Speed
8 7 7 7 6 6 6 8 10 11 11 11 10 9 8 7 6 7 8 9 9 9 9 10 10 10 10 10 10 10 9 9 9 8 7 6 5 4 3 2 2 2 3 4 5 6 8 10 11
6 6 6 4 4 4 5 8 9 9 10 10 9 8 8 8 6 7 8 8 8 8 8 8 9 9 9 9 9 9 8 8 8 8 8 7 6 5 4 3 1 1 2 3 5 6 7 9 10
4 4 4 3 2 3 5 6 8 9 9 9 9 8 8 7 6 5 6 7 7 7 7 7 7 7 7 7 7 7 7 7 7 7 7 7 7 6 4 3 2 1 1 2 4 5 7 8 9
3 2 1 1 2 3 5 6 7 8 8 8 8 7 6 6 5 4 4 5 5 5 5 5 5 5 5 5 5 5 6 6 6 6 7 7 7 6 5 4 3 1 1 2 3 5 6 7 8
1 2 3 2 1 2 4 5 6 7 6 6 6 6 6 5 4 3 3 4 4 4 4 3 3 3 3 3 3 3 4 4 4 5 5 6 6 6 5 5 4 3 2 2 3 4 5 6 8
2 3 4 3 1 2 3 4 4 5 4 4 4 4 4 4 3 2 1 2 3 2 2 1 1 0 0 1 1 1 2 3 3 4 4 4 5 5 5 4 4 3 3 3 3 3 4 5 6
4 4 5 3 2 2 2 3 3 3 3 3 4 4 3 2 2 1 0 1 2 2 2 2 2 1 2 2 2 2 3 3 3 4 4 4 4 4 4 4 4 3 3 4 3 3 4 4 5
6 6 5 4 3 4 4 4 4 4 4 5 5 5 4 3 2 1 1 2 2 3 4 4 4 4 4 4 4 4 5 5 5 5 6 6 5 5 5 5 4 4 4 4 4 4 4 3 3
8 8 7 6 7 6 5 7 7 7 7 7 7 7 6 6 4 3 3 4 5 5 6 6 6 6 6 6 6 6 6 7 7 7 7 8 8 7 6 6 6 6 5 5 5 5 4 4 3
9 9 10 9 9 8 7 10 11 11 11 11 11 10 10 9 8 7 6 6 7 8 9 9 9 9 8 8 8 8 8 8 9 9 9 10 10 9 9 9 8 7 7 7 6 6 6 5 4
11 11 11 11 12 12 12 13 14 14 14 14 14 14 13 13 13 12 11 10 10 11 12 12 12 12 11 11 11 11 11 11 10 11 11 11 11 11 11 11 11 10 10 9 8 8 7 7 6
12 12 13 14 14 14 15 15 16 16 18 18 18 18 18 18 18 17 16 14 13 14 14 15 15 15 15 14 13 13 13 13 13 13 12 13 13 13 13 13 13 13 12 12 11 10 9 9 8
13 13 15 16 16 17 18 18 18 19 21 22 22 23 23 23 22 22 21 20 19 18 17 17 17 17 17 17 16 16 16 16 16 15 14 14 14 15 15 15 15 15 15 14 13 13 12 11 10
14 15 16 17 18 19 20 21 21 22 23 25 26 27 27 27 26 26 26 25 24 23 22 21 20 20 20 20 20 19 19 18 18 17 16 15 15 16 16 16 16 17 17 16 16 15 15 14 12
16 17 18 19 20 21 22 23 23 25 26 27 29 30 30 31 30 29 29 29 28 28 27 26 24 23 23 23 23 22 21 21 21 19 18 17 16 17 17 17 17 18 18 18 18 17 17 16 15
17 18 20 22 23 24 24 25 26 28 29 29 30 31 32 33 33 32 32 33 32 32 31 30 29 27 27 25 25 25 24 24 23 22 21 20 19 19 18 18 18 18 19 20 19 19 18 19 18
18 20 21 23 24 25 26 28 29 30 32 32 33 34 34 35 36 36 37 37 37 37 36 35 33 32 30 29 27 26 27 27 26 25 24 22 21 20 20 20 19 18 19 20 20 19 20 20 20
19 21 22 24 25 26 28 30 31 33 34 35 36 36 36 36 37 38 39 41 41 40 40 39 38 36 35 34 32 30 30 30 30 28 26 24 23 22 22 21 20 20 20 21 21 20 20 21 22
19 20 21 23 25 27 28 30 32 34 35 37 37 38 39 38 39 40 41 41 42 43 43 42 41 40 39 38 36 33 32 32 31 31 29 27 26 24 24 23 22 21 21 22 22 23 23 23 23
18 19 20 22 25 27 29 30 32 34 36 37 39 39 39 39 40 40 41 43 43 44 45 45 44 44 42 41 39 37 36 36 34 33 32 30 29 27 26 25 24 23 23 23 23 23 24 24 24
18 19 19 21 23 25 28 29 30 32 34 35 37 37 37 38 38 38 39 40 42 43 44 45 45 45 45 43 41 40 39 38 37 36 33 31 30 29 28 28 27 25 24 24 24 23 24 24 25
16 17 18 19 21 23 24 27 27 28 29 31 33 34 35 36 36 37 36 35 37 39 41 43 44 45 45 45 43 42 41 41 39 37 36 34 32 31 29 29 29 28 27 26 25 25 25 25 25
14 16 18 19 20 21 22 24 25 24 25 28 30 30 31 32 32 31 32 33 34 34 36 38 40 42 43 44 44 43 42 40 39 37 36 36 34 33 32 31 30 29 28 26 25 25 26 26 26
14 16 17 17 18 20 21 22 21 21 22 24 25 26 27 27 27 27 27 28 29 29 30 32 34 37 39 40 41 41 40 39 39 38 37 37 36 33 32 32 31 30 29 28 27 26 27 27 28
15 16 17 18 18 18 19 19 20 20 21 22 22 23 23 22 22 22 22 22 22 23 24 26 27 29 32 35 37 37 37 38 38 38 37 37 36 35 34 33 32 31 30 30 29 29 28 27 27
15 16 17 17 17 17 17 17 17 18 20 20 20 21 20 19 19 18 17 17 17 18 18 19 21 23 25 28 30 32 33 34 35 35 35 35 35 35 34 33 33 32 31 30 29 29 28 28 27
16 17 17 16 16 17 17 16 17 18 19 19 19 20 20 18 18 17 15 14 14 13 12 14 15 17 20 22 24 26 27 29 30 31 32 33 33 33 33 32 32 31 30 30 29 29 27 27 28
17 18 18 17 17 18 17 16 16 17 18 18 19 19 19 17 16 15 13 13 12 10 9 10 11 11 13 16 19 21 22 24 25 26 28 28 28 28 29 29 29 29 29 29 28 27 27 26 27
18 18 18 17 18 18 17 16 17 17 18 19 19 19 18 17 16 15 14 13 11 9 8 7 8 8 9 11 13 15 16 18 20 21 21 22 23 23 23 24 24 24 25 26 26 26 27 26 26
18 19 19 18 18 18 17 17 17 18 18 18 19 19 19 17 16 16 15 14 11 10 8 7 6 5 6 7 8 10 12 13 14 15 15 17 17 18 18 18 18 19 19 21 22 24 25 25 25
Wind_Direction
75 71 65 57 61 61 58 61 57 55 56 56 56 58 67 77 90 98 100 99 97 92 89 86 83 80 74 70 67 65 63 59 58 58 58 61 66 72 83 104 145 179 194 201 203 206 210 213 216
72 65 62 51 57 62 59 66 61 55 55 57 56 57 64 80 94 105 107 107 105 100 94 89 86 85 81 75 70 66 63 59 57 55 53 54 58 62 64 68 78 166 210 217 216 215 215 217 219
63 58 53 27 44 60 66 66 64 59 55 52 54 56 63 80 93 104 109 115 113 108 101 94 90 89 86 81 74 67 63 58 55 53 51 49 50 54 56 56 56 58 227 230 230 227 225 225 225
51 30 3 351 52 68 67 67 64 57 58 54 53 55 64 79 90 102 111 120 121 116 108 101 95 91 88 84 78 70 61 56 51 48 46 45 45 48 48 44 38 16 304 257 248 242 238 237 236
44 306 288 301 360 51 63 60 65 60 51 51 51 53 63 77 87 104 120 127 132 128 120 111 103 93 87 82 77 64 52 47 43 39 37 36 37 38 38 37 31 15 343 301 274 261 253 248 244
240 272 281 273 320 36 48 43 54 62 47 37 35 40 52 68 82 93 122 136 147 154 152 143 128 110 66 40 26 18 12 11 13 12 15 18 21 24 26 26 25 14 351 325 304 284 269 261 255
228 264 283 281 313 344 359 360 2 16 10 0 3 10 16 29 62 64 5 164 177 201 210 220 243 264 272 282 296 304 310 313 318 326 331 337 347 356 1 1 360 355 346 335 322 306 292 274 263
234 260 279 267 288 289 300 312 320 327 325 322 327 334 332 326 337 344 303 283 254 243 246 251 259 263 267 272 283 290 294 295 296 300 303 306 311 319 327 332 329 327 330 328 327 323 313 300 282
241 250 266 264 287 289 296 306 308 304 302 304 308 307 304 302 299 289 283 279 269 260 259 261 265 265 267 270 274 279 284 287 288 289 291 292 294 297 299 305 310 310 310 312 314 319 320 316 306
246 251 258 266 275 280 293 300 300 297 294 294 293 289 290 290 289 282 275 271 271 268 265 264 264 264 265 268 270 272 275 278 281 282 283 284 287 288 290 291 292 295 298 300 303 306 309 311 307
253 255 261 270 282 285 289 291 291 293 291 287 286 285 285 284 282 278 272 267 266 269 270 269 269 268 266 263 264 266 268 271 273 277 279 280 280 281 282 284 284 286 289 291 293 296 299 300 299
259 261 264 267 275 281 284 284 286 288 288 286 284 283 282 281 280 279 277 272 267 265 268 269 269 270 270 267 264 265 265 266 268 271 274 277 277 276 277 279 280 281 283 284 285 286 290 292 291
261 263 265 269 272 276 280 281 283 283 282 283 282 280 279 277 277 277 277 275 271 267 264 263 264 265 265 266 264 265 265 265 266 267 270 272 276 275 275 275 276 276 277 279 281 281 283 285 286
257 261 266 270 273 276 277 279 280 278 278 279 279 278 278 277 276 276 275 273 271 269 266 262 259 260 261 262 264 265 265 267 267 268 269 270 272 273 273 272 272 272 272 273 275 277 279 280 280
262 266 270 274 276 277 279 280 280 280 278 277 277 277 278 277 276 274 273 271 269 267 266 264 261 260 260 261 263 264 265 265 265 265 267 268 268 268 268 269 270 271 271 272 272 274 276 275 273
273 275 277 279 280 280 280 281 281 280 278 277 276 276 276 276 274 272 271 269 267 265 264 263 262 260 259 259 260 260 262 264 264 262 263 264 265 266 265 264 267 269 269 268 269 270 272 273 271
279 281 282 284 285 285 284 284 283 281 280 280 279 278 277 276 275 273 271 269 267 266 265 264 263 261 259 257 257 258 259 261 263 264 262 262 263 265 265 263 262 265 266 264 265 268 268 270 271
283 285 287 288 289 289 288 288 286 286 286 285 284 283 280 277 276 275 272 270 267 267 265 264 263 262 260 259 258 258 259 262 262 263 263 262 262 264 265 264 263 265 266 263 264 269 271 269 268
286 288 290 292 292 291 290 290 288 288 288 288 288 287 283 280 278 274 271 269 266 264 263 262 261 261 260 259 259 258 259 260 261 261 261 262 263 263 265 264 263 267 268 267 265 266 269 270 268
291 293 294 295 295 293 292 292 291 290 290 290 288 287 285 282 280 277 273 269 265 262 260 259 258 257 258 258 257 256 257 258 260 261 260 261 262 260 262 263 264 266 268 269 267 265 269 268 266
300 300 300 300 298 296 296 295 294 293 291 291 289 286 286 285 281 278 276 271 264 261 260 258 257 256 255 255 256 255 255 256 259 262 262 260 261 262 262 264 265 266 267 266 264 267 270 267 263
309 310 310 307 303 302 301 299 298 297 297 295 293 291 289 288 285 282 278 273 268 264 261 259 256 255 254 254 254 256 256 256 257 260 262 261 263 265 265 265 264 265 266 265 263 264 267 264 260
321 319 315 312 309 307 308 305 305 301 301 301 298 297 295 293 291 286 281 276 273 268 263 262 257 255 253 253 253 254 255 256 256 258 261 261 265 266 267 268 267 267 266 265 264 264 263 262 258
333 330 327 321 317 314 314 312 311 310 310 309 305 303 301 301 297 293 288 282 276 273 269 264 260 256 254 253 253 254 254 254 255 257 259 262 265 266 268 266 267 266 265 263 262 262 262 259 256
338 336 335 332 329 326 324 321 322 322 320 321 322 319 316 314 309 304 294 292 287 280 274 267 263 259 255 253 253 253 255 255 255 256 259 263 264 265 266 265 265 265 264 260 259 258 259 256 256
345 342 339 337 336 335 336 333 331 332 333 335 334 334 332 328 325 321 311 302 296 288 282 273 266 260 255 254 254 254 255 256 255 257 260 262 264 264 264 264 264 264 264 260 258 257 256 255 256
350 350 347 345 344 345 344 340 339 339 343 343 342 341 340 337 333 330 326 320 313 299 289 278 271 264 258 254 253 255 256 257 258 258 260 262 263 264 265 264 262 263 261 258 256 253 254 253 251
356 355 356 353 352 352 351 349 349 348 349 350 351 351 350 348 341 342 339 336 330 319 308 297 284 274 264 259 256 256 258 258 261 261 261 263 263 264 264 262 261 260 257 255 252 250 250 248 248
2 1 1 358 358 357 357 356 356 356 356 359 0 360 0 360 358 356 354 355 353 345 334 320 306 291 274 264 259 256 257 259 260 261 259 260 260 262 262 257 256 254 253 251 251 248 245 243 243
8 7 4 3 3 2 360 359 359 358 359 2 5 6 5 4 5 5 5 2 2 1 357 348 335 316 289 279 269 261 256 256 257 258 259 261 261 261 261 256 254 252 249 249 246 243 242 240 240
Height
5926 5926 5927 5928 5928 5927 5926 5925 5924 5923 5923 5922 5921 5920 5920 5920 5920 5922 5920 5918 5918 5918 5918 5917 5917 5917 5916 5916 5916 5915 5915 5914 5913 5913 5912 5912 5911 5911 5910 5910 5910 5910 5910 5910 5911 5911 5911 5911 5912
5927 5927 5929 5929 5928 5927 5927 5926 5925 5925 5924 5923 5922 5922 5921 5920 5920 5920 5920 5920 5920 5920 5919 5919 5919 5919 5918 5918 5918 5917 5916 5916 5915 5914 5913 5913 5912 5911 5911 5911 5910 5910 5910 5910 5910 5910 5910 5911 5912
5928 5928 5930 5929 5928 5928 5928 5927 5926 5925 5925 5924 5924 5923 5923 5922 5921 5920 5921 5921 5921 5921 5921 5921 5920 5920 5920 5920 5919 5919 5918 5917 5916 5915 5915 5914 5913 5912 5912 5911 5911 5910 5910 5910 5910 5910 5910 5910 5911
5929 5930 5930 5930 5929 5928 5928 5927 5927 5926 5926 5926 5925 5924 5924 5923 5922 5921 5921 5922 5922 5922 5922 5922 5922 5921 5921 5921 5920 5920 5919 5919 5918 5917 5916 5915 5914 5913 5912 5912 5911 5910 5910 5909 5909 5909 5909 5909 5910
5930 5930 5930 5929 5929 5928 5928 5928 5928 5927 5927 5926 5925 5925 5925 5925 5923 5922 5922 5922 5922 5922 5922 5922 5922 5922 5922 5922 5921 5921 5920 5920 5919 5918 5917 5916 5915 5914 5913 5912 5911 5911 5910 5909 5909 5908 5908 5908 5909
5930 5930 5930 5929 5928 5928 5928 5928 5928 5928 5927 5927 5926 5926 5926 5925 5924 5922 5922 5922 5923 5923 5923 5923 5923 5923 5922 5922 5922 5921 5921 5920 5919 5918 5917 5916 5915 5914 5913 5912 5911 5911 5910 5909 5909 5908 5908 5908 5908
5930 5930 5929 5929 5928 5928 5928 5928 5928 5928 5928 5928 5927 5926 5926 5926 5925 5923 5922 5922 5923 5923 5923 5923 5923 5922 5922 5922 5922 5921 5921 5920 5919 5918 5917 5916 5915 5914 5913 5912 5912 5911 5910 5909 5909 5908 5907 5907 5907
5929 5930 5928 5928 5928 5928 5928 5928 5928 5928 5928 5928 5927 5926 5926 5926 5925 5924 5923 5922 5922 5923 5922 5922 5922 5922 5922 5921 5921 5921 5920 5920 5919 5918 5917 5916 5915 5914 5913 5912 5911 5911 5910 5909 5908 5908 5907 5907 5906
5929 5930 5928 5928 5928 5928 5927 5928 5927 5927 5927 5927 5926 5926 5925 5925 5924 5924 5923 5922 5922 5922 5922 5921 5921 5921 5920 5920 5920 5919 5919 5918 5918 5917 5916 5915 5914 5914 5913 5912 5911 5910 5909 5909 5908 5908 5907 5906 5906
5928 5929 5928 5928 5927 5927 5926 5926 5926 5925 5925 5925 5925 5924 5924 5923 5923 5923 5923 5922 5921 5920 5920 5920 5920 5919 5919 5918 5918 5917 5917 5916 5916 5915 5914 5914 5913 5912 5912 5911 5910 5909 5909 5908 5907 5907 5906 5906 5905
5927 5927 5927 5926 5926 5925 5925 5924 5924 5923 5923 5923 5922 5922 5921 5921 5920 5920 5921 5921 5920 5919 5918 5917 5917 5916 5916 5916 5915 5915 5914 5914 5913 5913 5912 5911 5911 5910 5910 5909 5909 5908 5907 5907 5906 5906 5905 5905 5905
5926 5925 5925 5925 5924 5923 5922 5922 5922 5921 5920 5919 5919 5918 5918 5917 5916 5916 5917 5917 5918 5917 5916 5915 5914 5913 5912 5912 5912 5912 5911 5911 5910 5910 5909 5908 5908 5908 5907 5907 5906 5906 5906 5905 5905 5904 5904 5904 5903
5924 5923 5922 5921 5920 5920 5919 5919 5919 5918 5916 5915 5914 5914 5913 5912 5912 5911 5911 5912 5913 5913 5912 5912 5911 5910 5909 5908 5908 5908 5907 5907 5907 5906 5906 5905 5905 5904 5904 5904 5903 5903 5903 5903 5903 5902 5902 5902 5902
5920 5919 5919 5918 5918 5917 5916 5915 5915 5913 5911 5910 5909 5907 5907 5907 5906 5906 5906 5906 5906 5906 5907 5906 5906 5906 5905 5904 5904 5903 5903 5902 5902 5902 5902 5902 5901 5901 5900 5900 5900 5900 5900 5900 5900 5900 5899 5899 5900
5917 5917 5916 5915 5914 5913 5912 5911 5910 5908 5906 5905 5903 5902 5901 5900 5900 5900 5899 5898 5898 5899 5899 5899 5899 5899 5899 5899 5898 5898 5897 5897 5897 5897 5897 5897 5897 5897 5896 5896 5896 5895 5895 5896 5896 5896 5896 5896 5896
5914 5914 5913 5911 5909 5908 5909 5906 5903 5901 5900 5898 5896 5894 5893 5893 5892 5892 5891 5890 5890 5890 5890 5890 5891 5892 5892 5892 5892 5892 5891 5891 5891 5891 5891 5891 5892 5892 5892 5892 5892 5891 5891 5891 5891 5892 5892 5892 5893
5910 5909 5908 5906 5904 5903 5901 5898 5896 5894 5892 5890 5889 5887 5886 5885 5884 5883 5882 5881 5881 5880 5881 5881 5881 5882 5883 5884 5885 5885 5884 5884 5884 5884 5885 5885 5885 5886 5886 5887 5887 5887 5886 5886 5887 5888 5888 5888 5888
5907 5905 5903 5901 5898 5896 5894 5891 5888 5886 5884 5882 5880 5878 5877 5875 5874 5873 5872 5871 5870 5870 5870 5871 5872 5873 5874 5875 5876 5877 5877 5877 5877 5877 5878 5879 5879 5879 5879 5880 5881 5881 5881 5881 5882 5883 5883 5883 5883
5902 5901 5898 5896 5893 5890 5887 5884 5881 5879 5876 5873 5870 5868 5866 5864 5863 5862 5861 5860 5859 5858 5859 5860 5861 5862 5863 5865 5866 5868 5869 5869 5869 5869 5870 5871 5872 5872 5872 5873 5874 5875 5875 5875 5876 5876 5877 5877 5878
5898 5896 5894 5891 5887 5884 5881 5878 5875 5871 5868 5865 5862 5859 5856 5853 5851 5850 5849 5847 5846 5846 5846 5847 5849 5850 5852 5853 5856 5858 5859 5860 5860 5861 5862 5863 5864 5864 5865 5866 5867 5868 5868 5869 5869 5870 5870 5871 5871
5893 5892 5889 5886 5883 5878 5875 5871 5867 5863 5860 5856 5852 5848 5845 5842 5840 5838 5836 5835 5834 5833 5834 5835 5836 5838 5840 5842 5844 5846 5848 5849 5850 5852 5853 5854 5855 5856 5857 5858 5859 5860 5861 5862 5862 5863 5863 5864 5865
5890 5887 5884 5881 5877 5874 5870 5865 5861 5857 5853 5848 5844 5840 5836 5833 5829 5826 5824 5822 5821 5821 5821 5823 5824 5826 5828 5830 5833 5835 5837 5840 5841 5843 5844 5845 5845 5847 5849 5850 5851 5853 5854 5855 5855 5856 5856 5857 5857
5886 5883 5879 5876 5872 5868 5864 5860 5856 5851 5847 5842 5837 5832 5828 5823 5819 5816 5813 5812 5811 5810 5810 5811 5812 5815 5817 5819 5822 5825 5828 5830 5831 5833 5835 5836 5837 5838 5840 5842 5843 5844 5845 5846 5848 5849 5849 5849 5850
5883 5879 5875 5871 5868 5864 5859 5855 5850 5845 5841 5836 5831 5826 5821 5816 5812 5808 5805 5803 5801 5801 5801 5801 5802 5804 5807 5809 5812 5815 5818 5821 5823 5824 5826 5827 5828 5830 5832 5833 5834 5835 5836 5838 5839 5841 5842 5842 5843
5880 5877 5872 5868 5863 5860 5855 5850 5846 5840 5836 5831 5825 5820 5815 5810 5806 5802 5799 5797 5795 5794 5793 5793 5794 5796 5798 5800 5803 5806 5808 5811 5814 5816 5817 5818 5820 5822 5823 5824 5825 5826 5827 5828 5830 5832 5834 5835 5836
5877 5874 5870 5866 5861 5856 5851 5846 5843 5837 5832 5826 5821 5816 5811 5807 5802 5798 5795 5792 5790 5789 5787 5787 5787 5788 5790 5792 5795 5797 5800 5802 5805 5807 5809 5810 5811 5813 5813 5814 5816 5817 5818 5819 5820 5823 5825 5827 5828
5875 5871 5867 5863 5858 5853 5849 5844 5839 5834 5829 5824 5819 5814 5809 5804 5800 5796 5792 5790 5787 5785 5784 5783 5783 5783 5784 5786 5788 5790 5792 5794 5797 5799 5800 5802 5803 5804 5804 5804 5806 5807 5809 5811 5813 5815 5816 5818 5820
5874 5869 5864 5859 5855 5850 5846 5842 5838 5833 5828 5823 5818 5813 5808 5802 5798 5794 5791 5788 5785 5782 5781 5780 5779 5779 5780 5781 5783 5784 5786 5788 5790 5791 5793 5794 5795 5795 5796 5797 5798 5799 5801 5803 5805 5807 5808 5811 5813
5872 5867 5862 5858 5853 5849 5845 5843 5837 5832 5827 5822 5817 5812 5807 5802 5798 5794 5790 5787 5784 5782 5780 5778 5778 5777 5777 5778 5779 5780 5782 5783 5784 5785 5786 5787 5788 5789 5789 5790 5791 5792 5794 5796 5798 5799 5801 5803 5806
5871 5866 5861 5857 5852 5848 5844 5843 5836 5831 5827 5822 5817 5812 5807 5802 5798 5794 5791 5787 5784 5782 5780 5778 5777 5776 5776 5776 5776 5777 5778 5779 5779 5780 5781 5782 5782 5783 5783 5783 5785 5786 5788 5789 5791 5793 5795 5797 5799